This is the latest recevied weather packets stored in our database for station/object DB0BQ-11. If no packets are shown the sender has not sent any weather packets the latest 10 day(s).
| Time | Temp. | Humidity | Pressure | Rain* | Wind** | Luminosity | Snow |
|---|---|---|---|---|---|---|---|
| 1778008822 | 10.56° C | 95% | 1007.8 hPa | - | - | - | - |
| 1778005229 | 11.11° C | 93% | 1007.8 hPa | - | - | - | - |
| 1778002820 | 11.11° C | 93% | 1007.9 hPa | - | - | - | - |
| 1778002218 | 11.11° C | 93% | 1007.9 hPa | - | - | - | - |
| 1777998625 | 11.67° C | 92% | 1007.9 hPa | - | - | - | - |
| 1777995654 | 11.67° C | 92% | 1008.2 hPa | - | - | - | - |
| 1777995052 | 11.67° C | 91% | 1008.1 hPa | - | - | - | - |
| 1777993225 | 11.67° C | 94% | 1008.4 hPa | - | - | - | - |
| 1777992021 | 12.22° C | 93% | 1008.5 hPa | - | - | - | - |
| 1777989050 | 11.67° C | 93% | 1008.6 hPa | - | - | - | - |
| 1777988428 | 11.67° C | 93% | 1008.8 hPa | - | - | - | - |
| 1777981844 | 11.67° C | 93% | 1009.3 hPa | - | - | - | - |
| 1777980640 | 11.67° C | 94% | 1009.3 hPa | - | - | - | - |
| 1777980018 | 11.67° C | 93% | 1009.3 hPa | - | - | - | - |
| 1777979415 | 11.67° C | 95% | 1009.3 hPa | - | - | - | - |
| 1777975843 | 11.11° C | 96% | 1009.7 hPa | - | - | - | - |
| 1777975241 | 11.67° C | 96% | 1009.8 hPa | - | - | - | - |
| 1777974016 | 11.67° C | 97% | 1009.7 hPa | - | - | - | - |
| 1777971025 | 11.67° C | 98% | 1009.7 hPa | - | - | - | - |
| 1777969821 | 11.67° C | 98% | 1009.7 hPa | - | - | - | - |
| 1777963840 | 12.22° C | 99% | 1009.8 hPa | - | - | - | - |
| 1777960829 | 13.33° C | 99% | 1009.8 hPa | - | - | - | - |
| 1777959625 | 13.33° C | 99% | 1009.7 hPa | - | - | - | - |
| 1777944631 | 13.89° C | 99% | 1010.5 hPa | - | - | - | - |
| 1777941620 | 13.89° C | 99% | 1010.9 hPa | - | - | - | - |
* Rain since midnight (hover to see other rain measurements)
** Current wind speed in m/s (hover to see current wind gust speed)